Terminal Aerodrome Forecast
Issued by NWS Rapid City, SD

Home | Current Version | Previous Version | Graphics & Text | Print | Product List | Glossary On
Versions: 1 2 3 4 5 6 7 8 9 10 11 12 13 14 15 16 17 18
000
FTUS43 KUNR 232326
TAFRAP
TAF
KRAP 232326Z 2400/2424 36013KT P6SM -TSRA FEW040 SCT090CB OVC110
     FM240100 26006KT P6SM OVC100
      TEMPO 2402/2406 P6SM -TSRA BKN050CB
     FM241200 32009KT P6SM SCT050
     FM242000 30008KT P6SM BKN200 PROB30 2420/2424 P6SM TS BKN050CB=

USA.gov is the U.S. government's official web portal to all federal, state and local government web resources and services.